[[{"header":{"parameterUnit":"m.s-1","parameterCategory":1,"la1":30.2991,"la2":30.254,"lo1":-89.0895,"lo2":-89.0444,"dx":0.0017,"dy":0.0017,"nx":28,"ny":28,"refTime":"2022-11-16T09:00:00:Z","depth":0,"parameterNumber":2,"parameterNumberName":"U-component_of_WINDS"},"data":[0,0,0,0,0,0,0,0,0,0,0,0,0,0,0,0,0,0,0,0,0,0,0,0,0,0,0,0,0,0,0,0,0,0,0,0,0,0,0,0,0,0,0,0,0,0,0,0,0,0,0,0,0,0,0,0,0,0,0.3037,0.3036,0,0.2948,0.2947,0.2945,0.2946,0.2947,0.2949,0.295,0.2854,0.2851,0.2847,0,0,0,0,0,0,0,0,0,0,0,0,0,0.3204,0.3201,0.3037,0.3036,0.3034,0.2948,0.2946,0.2945,0.2946,0.2947,0.2949,0.295,0.2856,0.2851,0.2847,0,0,0,0,0,0,0,0,0,0,0,0,0,0.3125,0.32,0.3037,0.3024,0.3022,0.2948,0.2946,0.2945,0.2946,0.2947,0.2949,0.2951,0.2857,0.2852,0.2846,0.2777,0,0,0.283,0.2827,0,0,0,0,0,0,0,0,0.3129,0.3119,0.3027,0.3025,0.3023,0.296,0.2971,0.2888,0.2945,0.2975,0.295,0.2952,0.2888,0.288,0.2859,0.2773,0.2769,0.2829,0.2826,0.2824,0.2822,0,0,0,0,0,0,0,0.3135,0.3123,0.3001,0.3026,0.3023,0.3022,0.3013,0.2955,0.2922,0.2972,0.2972,0.2962,0.2887,0.2864,0.2857,0.2767,0.2829,0.2825,0.2821,0.2819,0.2618,0.2616,0,0,0,0,0,0,0.3143,0.3127,0.3004,0.2999,0.3082,0.3018,0.3007,0.2978,0.2923,0.2916,0.296,0.2962,0.2873,0.2863,0.2854,0.2767,0.2824,0.2818,0.2815,0.262,0.2618,0.2616,0,0,0,0,0,0,0.3147,0.3132,0.3008,0.3063,0.3047,0.3013,0.298,0.2976,0.2953,0.2914,0.2908,0.2944,0.2874,0.2861,0.2796,0.2764,0.2816,0.2811,0.2623,0.2619,0.2617,0.2595,0,0,0,0,0,0,0.3152,0.3134,0.3108,0.3062,0.3044,0.2952,0.2978,0.2972,0.2944,0.2946,0.2897,0.289,0.2874,0.2804,0.2791,0.2757,0.2807,0.2625,0.2621,0.2618,0.2598,0.2592,0.2586,0,0,0,0,0,0.3158,0.3104,0.3106,0.3091,0.3011,0.2951,0.294,0.2924,0.2942,0.2914,0.2889,0.2892,0.2771,0.2798,0.2782,0.2747,0.2627,0.2622,0.2618,0.2601,0.2593,0.2586,0,0,0,0,0,0,0.3145,0.3098,0.31,0.303,0.2995,0.2951,0.2916,0.2916,0.2873,0.2876,0.2858,0.2846,0.2781,0.2758,0.2789,0.2677,0.2701,0.2693,0.2693,0.2685,0.2679,0.2684,0.2802,0,0,0,0,0,0.3135,0.3091,0.3052,0.2994,0.2977,0.295,0.2923,0.2914,0.2876,0.286,0.283,0.2792,0.2745,0.2714,0.2669,0.2597,0.2585,0.2565,0.2558,0.2553,0.2546,0.2504,0.2494,0.26,0.26,0.26,0,0,0.3111,0.3081,0.3054,0.2991,0.2962,0.2916,0.2937,0.2887,0.2852,0.2852,0.2788,0.2766,0.2722,0.2652,0.262,0.263,0.2514,0.2548,0.2544,0.2539,0.2498,0.2488,0.2479,0.2597,0.2598,0.2598,0,0,0.3045,0.3019,0.2967,0.2938,0.2895,0.2878,0.2866,0.2822,0.2807,0.2744,0.2743,0.2701,0.2621,0.259,0.2563,0.2487,0.2486,0.2473,0.2438,0.2398,0.239,0.2382,0.2352,0.2342,0.2466,0.2466,0.2466,0,0.3021,0.2952,0.294,0.289,0.2862,0.2862,0.2809,0.2782,0.2725,0.2705,0.2719,0.2619,0.259,0.2512,0.2494,0.2473,0.2457,0.2477,0.2392,0.2384,0.2377,0.2349,0.2338,0.2465,0.2465,0.2465,0.2465,0,0.2924,0.2877,0.284,0.2787,0.2755,0.2704,0.2683,0.2652,0.2647,0.2628,0.2563,0.2528,0.2475,0.2457,0.2451,0.2378,0.2386,0.2397,0.242,0.2366,0.2338,0.2328,0.2462,0.2463,0.2463,0.2464,0,0,0.2844,0.2787,0.2773,0.2748,0.2702,0.2664,0.2614,0.2564,0.2536,0.2499,0.2454,0.2387,0.2397,0.2367,0.2358,0.2323,0.2262,0.2337,0.2336,0.2322,0.2177,0.2167,0.2155,0.2263,0.2261,0.226,0.218,0,0.277,0.268,0.2668,0.2587,0.2542,0.2543,0.2499,0.2465,0.2446,0.2405,0.2384,0.2336,0.2354,0.2335,0.2301,0.2277,0.2232,0.2283,0.2219,0.2217,0.2226,0.2141,0.213,0.2057,0.217,0.2168,0.2167,0,0.2671,0.2632,0.2547,0.2507,0.2488,0.2448,0.2401,0.2362,0.2323,0.2313,0.228,0.2275,0.2221,0.225,0.2174,0.2209,0.2183,0.2167,0.2164,0.2154,0.2186,0.2126,0.2033,0.2021,0.215,0.2152,0.2153,0,0.2618,0.2544,0.2483,0.2463,0.2415,0.2387,0.2365,0.2329,0.23,0.2259,0.224,0.2193,0.2167,0.213,0.2113,0.2136,0.2037,0.2065,0.2024,0.2025,0.2,0.2001,0.1898,0.1989,0.1989,0.199,0.199,0,0.2535,0.2482,0.2459,0.2421,0.2362,0.2349,0.229,0.227,0.2238,0.2195,0.2195,0.2154,0.2135,0.2092,0.2079,0.2016,0.2005,0.1993,0.199,0.1991,0.1992,0.1971,0.1974,0.1987,0.1987,0.1988,0.1988,0,0.2463,0.2446,0.2379,0.2341,0.233,0.2287,0.2253,0.2216,0.22,0.2146,0.2133,0.2105,0.2054,0.2035,0.1972,0.1963,0.1891,0.1893,0.1904,0.1902,0.1861,0.1864,0.1738,0.172,0.1826,0.1825,0.1824,0,0.241,0.2369,0.2327,0.2299,0.2277,0.2232,0.2203,0.2189,0.2158,0.2112,0.208,0.2031,0.1989,0.1908,0.1881,0.1834,0.1832,0.1792,0.1825,0.1828,0.1828,0.1829,0.1824,0.1784,0.1783,0.1782,0.1782,0,0.2315,0.2309,0.2267,0.2223,0.2188,0.2152,0.2117,0.2094,0.2075,0.204,0.1989,0.1957,0.1895,0.1844,0.1795,0.1772,0.1772,0.1772,0.176,0.1759,0.1766,0.1758,0.1883,0.1774,0.1775,0.1775,0.1776,0.1776,0.2249,0.2212,0.2177,0.213,0.2103,0.2071,0.2034,0.2013,0.1971,0.1919,0.1914,0.1858,0.1821,0.1756,0.1731,0.1687,0.1697,0.168,0.1675,0.167,0.1665,0.1776,0.1678,0.1679,0.1679,0.1679,0.1679,0,0.2151,0.2129,0.2087,0.2039,0.2002,0.2009,0.1971,0.1939,0.189,0.1857,0.1817,0.1758,0.1709,0.168,0.1631,0.1601,0.16,0.1588,0.1588,0.1582,0.166,0.1675,0.159,0.159,0.159,0.159,0.159,0.159,0.2096,0.2035,0.2025,0.195,0.1928,0.1874,0.1851,0.1821,0.1794,0.1728,0.1688,0.1671,0.1639,0.1588,0.1543,0.1536,0.1516,0.1503,0.1496,0.1568,0.1577,0.1586,0.1599,0.15,0.15,0.1421,0.1421,0.142]},{"header":{"parameterUnit":"m.s-1","parameterCategory":1,"la1":30.2991,"la2":30.254,"lo1":-89.0895,"lo2":-89.0444,"dx":0.0017,"dy":0.0017,"nx":28,"ny":28,"refTime":"2022-11-16T09:00:00:Z","depth":0,"parameterNumber":3,"parameterNumberName":"V-component_of_WINDS"},"data":[0,0,0,0,0,0,0,0,0,0,0,0,0,0,0,0,0,0,0,0,0,0,0,0,0,0,0,0,0,0,0,0,0,0,0,0,0,0,0,0,0,0,0,0,0,0,0,0,0,0,0,0,0,0,0,0,0,0,-6.2831,-6.2833,0,-6.303,-6.3033,-6.3035,-6.2955,-6.2951,-6.2946,-6.2941,-6.3142,-6.3152,-6.3161,0,0,0,0,0,0,0,0,0,0,0,0,0,-6.2376,-6.2385,-6.283,-6.2833,-6.2835,-6.303,-6.3033,-6.3035,-6.2956,-6.295,-6.2945,-6.2939,-6.3139,-6.3151,-6.3162,0,0,0,0,0,0,0,0,0,0,0,0,0,-6.2574,-6.2388,-6.283,-6.2819,-6.282,-6.3029,-6.3033,-6.3036,-6.2957,-6.295,-6.2943,-6.2937,-6.3135,-6.3149,-6.3164,-6.3394,0,0,-6.3208,-6.3215,0,0,0,0,0,0,0,0,-6.2563,-6.2591,-6.2818,-6.282,-6.2822,-6.2961,-6.2946,-6.3156,-6.2959,-6.2905,-6.2941,-6.2933,-6.3087,-6.3105,-6.3158,-6.3403,-6.3412,-6.321,-6.3218,-6.3225,-6.3229,0,0,0,0,0,0,0,-6.2549,-6.2582,-6.2909,-6.2822,-6.2824,-6.2803,-6.2824,-6.2985,-6.3033,-6.2909,-6.2904,-6.2929,-6.3087,-6.3144,-6.3162,-6.3415,-6.3209,-6.3222,-6.3231,-6.3237,-6.3858,-6.3866,0,0,0,0,0,0,-6.2536,-6.2571,-6.2903,-6.2915,-6.2673,-6.2817,-6.284,-6.2923,-6.3031,-6.3041,-6.2935,-6.2925,-6.3123,-6.3145,-6.3169,-6.3446,-6.3224,-6.3238,-6.3246,-6.3851,-6.386,-6.3869,0,0,0,0,0,0,-6.2526,-6.2566,-6.2895,-6.2742,-6.2782,-6.2832,-6.2927,-6.2931,-6.2988,-6.305,-6.3058,-6.2985,-6.3118,-6.3148,-6.3339,-6.3452,-6.3245,-6.3258,-6.3842,-6.3854,-6.3864,-6.4002,0,0,0,0,0,0,-6.2514,-6.2563,-6.2652,-6.2745,-6.2791,-6.3063,-6.2934,-6.294,-6.3014,-6.3003,-6.31,-6.3109,-6.3115,-6.3318,-6.3353,-6.3468,-6.3269,-6.3832,-6.3847,-6.3861,-6.3988,-6.4017,-6.4042,0,0,0,0,0,-6.2498,-6.2682,-6.2657,-6.2698,-6.2903,-6.307,-6.3096,-6.3101,-6.3023,-6.3113,-6.3152,-6.3106,-6.3433,-6.3338,-6.3377,-6.3498,-6.3825,-6.3843,-6.386,-6.3975,-6.4011,-6.4041,0,0,0,0,0,0,-6.2601,-6.2694,-6.2668,-6.2888,-6.2972,-6.3056,-6.3169,-6.3139,-6.3245,-6.323,-6.3229,-6.3252,-6.3449,-6.3492,-6.3384,-6.3726,-6.3617,-6.3643,-6.3692,-6.3726,-6.3753,-6.3739,-6.3281,0,0,0,0,0,-6.265,-6.2779,-6.2852,-6.3039,-6.3083,-6.3119,-6.3192,-6.3188,-6.3275,-6.3309,-6.3363,-6.3447,-6.3569,-6.3649,-6.3765,-6.3992,-6.4012,-6.4095,-6.4122,-6.4144,-6.4168,-6.4291,-6.4329,-6.3926,-6.3926,-6.3926,0,0,-6.2751,-6.2818,-6.2899,-6.3062,-6.3127,-6.3259,-6.315,-6.3294,-6.3392,-6.3331,-6.3515,-6.3557,-6.3651,-6.3861,-6.3956,-6.3903,-6.4283,-6.4167,-6.4184,-6.4195,-6.4313,-6.4351,-6.4385,-6.3938,-6.3936,-6.3934,0,0,-6.3005,-6.3068,-6.3231,-6.3298,-6.3398,-6.342,-6.3459,-6.3549,-6.3575,-6.376,-6.3716,-6.3831,-6.4041,-6.4111,-6.4173,-6.4451,-6.4412,-6.4489,-6.4632,-6.4752,-6.4784,-6.4812,-6.4912,-6.4948,-6.4511,-6.4512,-6.4512,0,-6.3118,-6.3318,-6.3319,-6.3468,-6.354,-6.3491,-6.3656,-6.372,-6.3852,-6.3903,-6.3841,-6.4104,-6.4164,-6.439,-6.4458,-6.4509,-6.4554,-6.4479,-6.4779,-6.4808,-6.4834,-6.4929,-6.4967,-6.452,-6.4519,-6.4518,-6.4518,0,-6.3452,-6.3591,-6.3711,-6.3841,-6.3926,-6.4082,-6.4106,-6.4192,-6.418,-6.4209,-6.4397,-6.4467,-6.4596,-6.4648,-6.4638,-6.4873,-6.4837,-6.4778,-6.4668,-6.4881,-6.4971,-6.5007,-6.4533,-6.453,-6.4527,-6.4525,0,0,-6.3779,-6.3907,-6.3951,-6.4009,-6.4115,-6.4221,-6.4374,-6.4501,-6.4576,-6.4667,-6.4796,-6.4974,-6.492,-6.4991,-6.4987,-6.5093,-6.5309,-6.502,-6.5022,-6.5073,-6.5573,-6.5619,-6.5661,-6.5283,-6.529,-6.5296,-6.5566,0,-6.4041,-6.4311,-6.4316,-6.4564,-6.4692,-6.4646,-6.4779,-6.4858,-6.4888,-6.5,-6.5032,-6.516,-6.5078,-6.512,-6.5223,-6.5262,-6.541,-6.5242,-6.5402,-6.5408,-6.5382,-6.5708,-6.5757,-6.6008,-6.5601,-6.5607,-6.5611,0,-6.4384,-6.4488,-6.4749,-6.4836,-6.489,-6.501,-6.5127,-6.5234,-6.5322,-6.5336,-6.5416,-6.5396,-6.555,-6.5435,-6.5647,-6.5533,-6.5598,-6.5627,-6.5637,-6.5653,-6.5524,-6.5735,-6.6088,-6.6127,-6.5666,-6.5662,-6.5658,0,-6.4597,-6.4802,-6.4985,-6.5036,-6.5142,-6.5228,-6.5275,-6.5356,-6.5432,-6.5533,-6.5582,-6.57,-6.5764,-6.5855,-6.5867,-6.5782,-6.6081,-6.5966,-6.6098,-6.6098,-6.6164,-6.616,-6.6535,-6.6204,-6.6203,-6.6203,-6.6202,0,-6.4891,-6.5053,-6.5083,-6.5196,-6.5375,-6.5378,-6.5555,-6.5595,-6.5667,-6.5786,-6.5752,-6.5864,-6.5872,-6.5987,-6.5996,-6.6171,-6.62,-6.6216,-6.6217,-6.6221,-6.6219,-6.6265,-6.6248,-6.6213,-6.621,-6.6208,-6.6207,0,-6.5161,-6.5187,-6.5384,-6.5468,-6.5492,-6.5621,-6.5692,-6.5799,-6.5825,-6.5976,-6.6011,-6.6053,-6.6186,-6.6206,-6.6362,-6.6368,-6.6578,-6.656,-6.655,-6.6548,-6.6679,-6.6667,-6.7098,-6.7155,-6.6785,-6.6788,-6.6791,0,-6.5348,-6.5471,-6.5568,-6.5646,-6.5699,-6.5824,-6.5902,-6.5909,-6.5991,-6.6099,-6.6193,-6.6323,-6.6427,-6.6641,-6.6684,-6.6803,-6.6789,-6.6931,-6.6806,-6.6806,-6.6792,-6.6786,-6.6798,-6.6956,-6.696,-6.6963,-6.6966,0,-6.5677,-6.5683,-6.5798,-6.5917,-6.6011,-6.6105,-6.6193,-6.6258,-6.6276,-6.6369,-6.6506,-6.6587,-6.6746,-6.6875,-6.6993,-6.704,-6.7007,-6.7005,-6.7042,-6.7047,-6.7037,-6.7046,-6.6618,-6.6995,-6.6992,-6.699,-6.6989,-6.6988,-6.5912,-6.602,-6.6105,-6.6233,-6.63,-6.6384,-6.6489,-6.6528,-6.6642,-6.6774,-6.677,-6.692,-6.7002,-6.7157,-6.7212,-6.7328,-6.7282,-6.7335,-6.7349,-6.7363,-6.7376,-6.7017,-6.7349,-6.7349,-6.7348,-6.7347,-6.7347,0,-6.624,-6.6293,-6.6411,-6.6536,-6.6637,-6.6596,-6.6692,-6.6778,-6.6911,-6.6992,-6.7095,-6.7252,-6.7376,-6.7429,-6.7551,-6.7634,-6.7622,-6.7666,-6.7661,-6.7673,-6.741,-6.7367,-6.7674,-6.7674,-6.7674,-6.7674,-6.7674,-6.7674,-6.6423,-6.6604,-6.6621,-6.6834,-6.6884,-6.7033,-6.7091,-6.7167,-6.7231,-6.7408,-6.7512,-6.7545,-6.7615,-6.7742,-6.7854,-6.7866,-6.7913,-6.7965,-6.797,-6.7724,-6.7691,-6.766,-6.7619,-6.7975,-6.7975,-6.8224,-6.8226,-6.8228]}]]